カタログに戻る

SL-16 DEB

運用中LEO
NORAD 24299·DEBRIS·🇷🇺 Russia

打ち上げ Sep 4, 1996 から Baikonur Cosmodrome

Loading…

次のパス (今後24時間)

TLE

最新Source: Space-Track

元期: Sep 14, 2026, 09:58 UTC

1 24299U 96051C   26257.41548551  .00000028  00000-0  65095-4 0  9991
2 24299  71.0343 260.8898 0191162 248.3404 109.7245 13.75868208506997

AllMySatでSL-16 DEBをリアルタイム追跡

Download on the App Store